Dewpoint
56 57 55 54 53 51 50 50 49 49 48 48 48 48 48 48 48 48 48 48 47 47 47 48 49 50 45 35 30 38 51 51 41 34 36 29 21 17 15 15 19 19 17 18 19 19 19
56 56 55 53 52 51 50 50 49 48 48 48 48 48 48 48 48 47 46 47 47 46 47 49 50 50 43 27 21 23 22 22 26 29 29 29 22 19 15 14 14 15 11 10 11 14 11
56 56 54 53 52 51 51 51 50 49 48 48 48 48 47 46 46 46 46 46 47 47 48 50 51 48 38 29 22 24 22 19 15 16 23 27 25 23 23 21 21 20 18 18 18 18 17
56 55 53 52 52 51 51 51 49 48 48 48 47 45 44 45 45 46 46 47 47 48 50 52 52 46 30 27 28 24 23 21 21 19 16 22 26 26 27 27 23 17 17 14 12 9 9
57 55 53 52 52 51 51 50 50 49 48 46 44 43 44 45 46 47 47 48 48 48 51 51 48 43 28 36 25 28 31 28 26 23 20 14 17 23 24 22 18 16 11 11 8 8 10
56 54 53 52 50 50 50 50 49 48 46 44 44 44 44 45 47 47 47 47 47 50 49 45 40 38 37 26 26 27 31 30 28 25 18 17 15 14 14 14 14 13 9 7 6 6 7
55 54 53 51 50 50 49 48 47 47 45 44 44 44 44 45 45 46 44 39 39 43 42 33 30 32 25 13 24 21 17 23 28 25 25 22 16 11 12 13 12 14 13 14 13 14 12
55 54 52 51 50 49 48 47 48 47 45 44 43 44 44 44 44 46 42 31 29 32 24 22 18 20 24 29 28 24 19 17 21 22 22 23 18 17 15 15 15 14 14 13 14 15 14
54 53 51 51 50 48 47 47 48 47 45 44 43 43 44 44 44 41 31 30 30 33 29 22 24 26 25 29 28 24 23 17 16 17 19 19 19 18 17 16 14 13 12 11 11 12 14
52 52 51 50 49 48 48 47 48 46 44 43 42 43 43 44 40 30 34 27 33 38 29 19 21 24 24 19 28 27 26 24 21 18 17 14 17 17 17 19 17 15 15 15 14 12 11
51 51 50 50 49 49 47 46 44 43 42 42 42 42 43 43 39 30 29 31 35 41 15 14 24 26 14 17 18 23 26 24 22 19 18 17 17 17 17 18 20 18 18 16 18 20 22
49 49 50 50 48 45 44 43 43 42 41 41 42 42 43 39 41 32 34 37 39 33 12 10 15 14 3 6 12 17 21 26 24 19 17 15 16 17 19 20 19 19 19 19 20 22 21
48 48 48 47 45 44 44 43 43 41 41 41 41 41 38 34 35 37 39 37 29 18 0 8 9 8 4 -2 -2 13 11 16 17 20 21 17 14 14 18 20 23 24 23 17 17 20 19
47 47 46 45 45 44 43 42 41 41 40 40 41 41 40 33 38 42 39 31 16 1 1 8 5 3 -0 -6 -6 8 3 3 5 24 19 13 13 15 18 19 19 21 22 18 17 18 17
45 46 46 46 44 42 41 41 41 39 39 41 41 37 40 41 42 40 34 22 13 11 9 7 2 -1 -4 -2 8 3 4 -3 16 29 26 26 20 26 23 19 17 20 29 24 26 26 22
44 44 45 43 42 41 40 41 40 39 39 40 36 34 33 39 41 39 30 20 9 12 11 7 4 -2 3 6 6 6 4 12 25 28 28 26 24 21 22 32 21 22 23 27 28 23 16
43 44 43 43 41 40 39 40 39 39 40 40 36 31 36 37 42 34 30 16 12 12 14 10 9 8 9 10 10 9 8 9 25 24 23 26 28 23 23 33 26 22 24 29 31 28 22
42 44 43 42 40 39 39 39 39 39 40 39 35 33 35 39 34 27 23 17 19 11 14 13 15 14 13 12 12 12 11 11 25 27 23 32 28 23 22 24 34 33 23 27 29 25 24
42 44 42 41 39 39 39 40 39 40 39 37 28 28 32 38 33 23 21 15 14 12 12 13 13 12 14 13 13 13 15 18 27 25 25 28 23 21 18 18 33 33 33 32 31 33 32
42 42 40 38 38 40 39 39 38 39 40 37 32 35 29 29 24 26 21 15 14 17 13 13 14 14 15 16 17 16 19 23 25 21 36 34 26 20 20 21 25 31 32 31 33 33 30
42 41 39 39 39 39 39 39 39 39 40 38 33 33 28 29 23 21 19 17 14 13 13 14 13 16 17 17 17 16 16 17 16 32 34 34 27 23 22 22 24 27 34 27 29 31 32
41 39 38 40 40 41 39 38 39 39 40 36 37 29 23 25 20 19 17 15 11 10 14 14 15 14 14 13 14 14 17 18 21 22 35 28 24 28 23 21 23 31 31 33 33 33 31
41 40 39 40 40 39 39 38 39 39 39 31 29 30 31 23 21 23 23 16 13 15 17 14 14 15 15 14 16 17 18 19 20 23 28 26 25 24 20 22 29 30 23 24 20 28 29
39 39 38 38 40 39 39 38 38 39 39 36 31 28 29 23 17 16 15 16 18 17 18 18 18 20 18 24 22 21 19 19 20 22 24 25 26 27 22 25 23 20 18 18 31 31 31
39 40 38 37 39 40 40 39 39 40 40 37 31 33 30 31 16 16 17 17 18 20 20 20 21 20 24 23 23 19 19 19 21 21 21 26 26 26 26 25 22 23 22 22 25 35 32
40 39 38 37 40 40 40 39 38 39 40 39 35 36 33 35 21 19 19 19 21 21 21 24 24 25 27 30 25 18 14 25 19 15 19 23 31 29 30 19 17 33 27 26 24 32 34
40 38 38 40 40 40 40 39 40 39 40 39 41 40 35 34 28 25 24 23 23 24 24 24 27 26 30 28 25 24 21 19 19 13 20 23 28 28 28 20 31 30 30 28 21 31 33
41 39 39 40 40 40 41 40 40 39 39 40 42 41 38 36 31 28 28 26 25 26 26 28 25 29 28 28 27 26 26 26 22 21 24 22 22 23 24 20 24 32 30 28 32 34 32
40 39 40 40 41 40 40 40 39 40 39 40 40 39 37 37 31 35 34 33 31 29 27 28 28 33 32 28 25 27 28 30 28 25 27 29 31 32 32 30 33 31 31 31 33 33 32
Lifted_Index
3 5 7 8 10 12 13 13 14 14 15 15 14 14 15 15 16 16 16 16 17 17 17 17 16 15 14 13 13 14 14 13 13 12 11 10 10 10 9 8 7 7 7 7 6 6 6
4 5 6 8 10 12 13 13 14 14 15 15 14 14 15 15 16 16 16 17 17 17 17 16 15 15 14 12 13 14 14 14 13 12 10 9 9 9 9 8 7 7 7 7 7 7 6
4 5 7 9 10 11 12 13 13 14 14 15 15 15 15 16 16 17 17 17 17 16 16 15 14 14 13 13 13 13 14 14 13 12 11 9 9 8 8 7 7 7 7 7 7 7 6
5 7 9 10 11 11 12 13 13 14 14 15 15 16 16 16 16 16 16 16 16 15 14 13 13 13 13 12 12 12 12 12 12 12 11 10 9 8 7 6 6 6 6 6 7 6 6
5 7 9 10 11 11 12 13 13 14 14 15 16 16 16 16 16 16 16 16 15 14 13 12 11 11 11 11 11 10 10 10 10 11 11 11 9 8 7 6 5 5 5 6 6 5 5
5 7 9 11 11 12 12 13 13 14 14 15 15 16 15 15 15 15 15 14 13 12 11 10 10 10 10 10 10 9 9 9 8 9 9 9 8 8 7 6 5 4 5 5 5 4 3
5 7 9 11 12 12 12 13 13 14 14 15 15 15 15 15 15 14 13 12 11 10 9 9 9 9 9 9 9 9 9 8 7 7 6 7 7 6 6 6 5 5 5 5 5 4 3
5 6 8 10 11 12 13 13 13 13 14 14 15 15 15 15 14 13 12 12 11 10 9 9 9 9 8 8 7 7 7 7 6 6 5 5 5 5 5 5 5 5 5 5 5 4 3
5 6 8 9 11 12 12 12 12 13 14 15 15 15 15 15 14 13 12 12 12 11 9 8 8 7 7 6 5 5 6 6 6 5 5 4 4 4 4 4 4 4 4 5 5 4 4
6 7 9 9 10 11 12 12 12 13 14 15 15 15 15 14 13 12 11 12 11 9 7 7 7 6 6 6 5 4 4 5 5 4 4 4 4 3 3 3 3 3 3 4 4 3 3
7 8 9 10 10 11 12 12 13 14 14 15 15 15 14 13 12 11 11 11 9 6 5 6 6 6 6 6 5 4 4 4 4 4 4 4 3 3 3 3 3 3 3 3 3 2 2
9 9 10 10 11 12 12 13 13 14 14 14 14 14 14 12 11 11 11 9 7 4 4 5 6 6 6 6 5 4 4 4 3 3 3 3 3 3 2 2 2 3 3 3 2 2 1
10 10 11 11 12 12 12 13 14 14 14 14 14 14 13 11 10 10 9 7 4 3 4 5 5 6 6 6 5 5 4 4 3 2 2 2 2 2 2 2 2 2 2 2 1 1 1
10 11 11 12 12 13 13 13 14 14 14 14 14 13 12 10 9 8 6 5 4 4 5 5 5 5 5 5 5 5 5 4 3 1 1 1 1 1 1 1 1 1 1 1 0 0 0
11 11 11 12 12 13 13 13 14 14 14 14 13 11 9 8 7 6 4 4 4 4 5 5 5 5 5 5 5 5 5 4 2 1 1 1 0 0 -0 0 1 1 0 0 0 -0 -0
11 11 11 12 12 13 13 13 13 13 13 13 11 9 7 6 5 4 3 4 5 5 6 6 5 5 5 5 5 5 5 3 1 1 1 1 1 1 0 0 0 0 -0 -0 0 -0 -0
11 11 11 12 13 13 13 13 13 13 13 11 8 6 5 4 4 3 3 4 5 6 7 7 6 6 6 5 5 5 4 2 1 1 1 1 1 1 1 0 -0 -0 -0 0 0 -0 -0
10 10 11 12 13 13 13 13 13 12 11 8 6 4 4 4 3 3 4 5 6 7 7 7 7 6 6 5 5 4 3 1 0 0 1 1 2 2 1 0 -0 -0 -0 0 0 0 -0
10 11 11 12 13 13 12 12 12 10 9 6 4 3 4 4 3 4 4 6 6 7 7 7 6 6 5 5 4 3 2 0 -0 -0 0 1 2 2 1 0 0 -0 -0 -0 0 0 0
10 11 11 12 12 12 11 11 10 9 7 5 4 3 3 4 4 4 5 6 6 7 7 7 6 5 4 3 3 2 1 1 0 -0 0 1 1 2 1 1 0 0 -0 -0 -0 0 0
10 11 11 11 11 10 10 9 8 7 6 5 4 3 4 4 5 5 6 6 6 6 6 6 5 4 4 3 3 2 2 1 1 0 0 1 1 2 2 2 1 1 -0 -1 -0 0 0
10 11 11 11 10 9 8 8 7 7 6 5 4 4 4 5 5 5 6 6 6 6 6 5 5 4 4 4 4 3 3 2 2 1 1 1 2 2 2 2 2 1 0 -0 -0 0 0
10 10 10 9 8 7 7 7 7 7 6 5 5 5 4 5 5 5 5 6 6 6 5 5 5 4 4 4 4 4 3 3 3 2 2 2 2 2 2 1 1 0 0 0 0 0 0
10 10 9 8 7 7 7 7 7 7 6 6 5 5 4 4 5 5 5 5 5 5 4 4 4 4 4 4 4 4 3 3 2 2 2 2 3 2 1 1 0 0 0 0 0 1 1
10 9 9 8 7 6 6 6 6 6 6 6 6 5 4 4 4 5 5 5 4 4 4 4 4 4 4 4 3 3 2 2 1 2 2 3 3 2 1 1 0 0 1 1 1 1 2
9 9 8 7 7 6 6 6 6 6 6 6 6 5 5 4 4 5 5 4 4 4 4 3 3 3 3 3 3 2 1 1 1 1 2 2 2 2 1 0 0 0 1 1 1 2 2
9 9 8 7 6 6 6 6 6 6 6 6 6 5 5 5 4 4 4 4 4 4 4 3 2 2 2 2 2 1 1 0 0 1 1 1 1 1 0 0 0 1 1 1 2 2 3
8 8 8 7 6 6 6 6 6 6 6 6 5 5 5 5 5 4 4 4 4 4 3 1 1 1 1 2 1 1 1 0 -0 0 1 1 1 0 0 0 1 2 2 2 2 3 3
8 8 8 7 6 6 6 6 6 6 6 6 5 5 6 6 5 4 4 4 3 3 2 1 1 1 1 2 2 1 1 0 -0 0 0 0 0 0 0 1 1 2 2 3 3 4 4